When you browse on this site, cookies collect data to enhance your experience and personalize the content and advertising you see.
Visit our Privacy Policy to learn more. By continuing to use the site, you agree to this use of cookies and data.
  • In Czech Republic
  • List of Countries
  • For 7 days
  • Water Temperature
  • Satellite Maps
  • Weather Map
  • Weather Widgets
  • user-avatar
    Login

    Hourly Weather Waukegan

    Today, 19 April, Friday

    Time Temperature Precipitation Wind Pressure Humidity
    00:00 +5°C° 0 mm 5 mps 739 mmHg 81%
    01:00 +3°C° 0 mm 6 mps 739 mmHg 81%
    02:00 +3°C° 0 mm 6 mps 738 mmHg 81%
    03:00 +3°C° 0 mm 7 mps 738 mmHg 81%
    04:00 +3°C° 0 mm 7 mps 739 mmHg 81%
    05:00 +2°C° 0 mm 8 mps 739 mmHg 81%
    06:00 +1°C° 0 mm 8 mps 740 mmHg 80%
    07:00 +2°C° 0 mm 9 mps 740 mmHg 78%
    08:00 +2°C° 0 mm 9 mps 740 mmHg 75%
    09:00 +3°C° 0 mm 9 mps 740 mmHg 72%
    10:00 +3°C° 0 mm 9 mps 741 mmHg 67%
    11:00 +5°C° 0 mm 10 mps 741 mmHg 61%
    12:00 +6°C° 0 mm 10 mps 741 mmHg 56%
    13:00 +6°C° 0 mm 10 mps 740 mmHg 52%
    14:00 +6°C° 0 mm 10 mps 740 mmHg 48%
    15:00 +6°C° 0 mm 10 mps 740 mmHg 45%
    16:00 +6°C° 0 mm 9 mps 740 mmHg 46%
    17:00 +5°C° 0 mm 9 mps 740 mmHg 47%
    18:00 +5°C° 0 mm 9 mps 740 mmHg 48%
    19:00 +3°C° 0 mm 9 mps 740 mmHg 50%
    20:00 +4°C° 0 mm 8 mps 741 mmHg 52%
    21:00 +4°C° 0 mm 8 mps 741 mmHg 54%
    22:00 +4°C° 0 mm 8 mps 741 mmHg 57%
    23:00 +4°C° 0 mm 8 mps 741 mmHg 59%

    Tomorrow, 20 April, Saturday

    Time Temperature Precipitation Wind Pressure Humidity
    00:00 +3°C° 0 mm 7 mps 740 mmHg 62%
    01:00 +3°C° 0 mm 7 mps 740 mmHg 64%
    02:00 +2°C° 0 mm 8 mps 740 mmHg 65%
    03:00 +2°C° 0 mm 8 mps 739 mmHg 66%
    04:00 +2°C° 0 mm 8 mps 739 mmHg 66%
    05:00 +2°C° 0 mm 8 mps 739 mmHg 66%
    06:00 +2°C° 0 mm 8 mps 739 mmHg 66%
    07:00 +3°C° 0 mm 9 mps 739 mmHg 59%
    08:00 +5°C° 0 mm 9 mps 739 mmHg 53%
    09:00 +7°C° 0 mm 9 mps 739 mmHg 46%
    10:00 +8°C° 0 mm 9 mps 738 mmHg 41%
    11:00 +10°C° 0 mm 9 mps 738 mmHg 36%
    12:00 +12°C° 0 mm 9 mps 738 mmHg 30%
    13:00 +12°C° 0 mm 8 mps 738 mmHg 31%
    14:00 +12°C° 0 mm 7 mps 738 mmHg 31%
    15:00 +14°C° 0 mm 7 mps 737 mmHg 32%
    16:00 +13°C° 0 mm 6 mps 738 mmHg 35%
    17:00 +12°C° 0 mm 5 mps 738 mmHg 38%
    18:00 +10°C° 0 mm 5 mps 738 mmHg 41%
    19:00 +10°C° 0 mm 4 mps 739 mmHg 42%
    20:00 +8°C° 0 mm 4 mps 739 mmHg 43%
    21:00 +8°C° 0 mm 3 mps 739 mmHg 44%
    22:00 +8°C° 0 mm 2 mps 739 mmHg 45%
    23:00 +8°C° 0 mm 1 mps 739 mmHg 47%

    Day after tomorrow, 21 April, Sunday

    Time Temperature Precipitation Wind Pressure Humidity
    00:00 +7°C° 0 mm 0 mps 739 mmHg 48%
    01:00 +8°C° 0 mm 1 mps 740 mmHg 48%
    02:00 +8°C° 0 mm 1 mps 740 mmHg 48%
    03:00 +8°C° 0 mm 1 mps 740 mmHg 48%
    04:00 +7°C° 0 mm 2 mps 740 mmHg 50%
    05:00 +7°C° 0 mm 2 mps 741 mmHg 53%
    06:00 +7°C° 0 mm 2 mps 741 mmHg 56%
    07:00 +10°C° 0 mm 2 mps 742 mmHg 54%
    08:00 +13°C° 0 mm 2 mps 742 mmHg 52%
    09:00 +15°C° 0 mm 2 mps 742 mmHg 51%
    10:00 +17°C° 0 mm 3 mps 743 mmHg 48%
    11:00 +18°C° 0 mm 3 mps 743 mmHg 45%
    12:00 +20°C° 0 mm 4 mps 743 mmHg 42%
    13:00 +20°C° 0 mm 4 mps 743 mmHg 42%
    14:00 +21°C° 0 mm 4 mps 743 mmHg 42%
    15:00 +21°C° 0 mm 4 mps 742 mmHg 42%
    16:00 +20°C° 0 mm 4 mps 743 mmHg 46%
    17:00 +20°C° 0 mm 4 mps 743 mmHg 49%
    18:00 +19°C° 0 mm 4 mps 743 mmHg 53%
    19:00 +18°C° 0 mm 4 mps 743 mmHg 56%
    20:00 +17°C° 0 mm 4 mps 743 mmHg 59%
    21:00 +15°C° 0 mm 4 mps 744 mmHg 62%
    22:00 +15°C° 0 mm 4 mps 744 mmHg 67%
    23:00 +15°C° 0 mm 4 mps 744 mmHg 71%

    22 April, Monday

    Time Temperature Precipitation Wind Pressure Humidity
    00:00 +14°C° 0 mm 4 mps 744 mmHg 76%
    01:00 +14°C° 0.2 mm 4 mps 743 mmHg 79%
    02:00 +14°C° 0.2 mm 4 mps 743 mmHg 82%
    03:00 +14°C° 0.2 mm 4 mps 743 mmHg 85%
    04:00 +14°C° 0.7 mm 4 mps 743 mmHg 87%
    05:00 +14°C° 0.7 mm 4 mps 743 mmHg 88%
    06:00 +14°C° 0.7 mm 4 mps 743 mmHg 90%
    07:00 +15°C° 0 mm 4 mps 743 mmHg 86%
    08:00 +17°C° 0 mm 4 mps 743 mmHg 81%
    09:00 +19°C° 0 mm 4 mps 743 mmHg 77%
    10:00 +20°C° 0 mm 4 mps 743 mmHg 71%
    11:00 +22°C° 0 mm 4 mps 743 mmHg 66%
    12:00 +23°C° 0 mm 4 mps 742 mmHg 60%
    13:00 +23°C° 0.1 mm 5 mps 742 mmHg 59%
    14:00 +25°C° 0.1 mm 5 mps 741 mmHg 57%
    15:00 +25°C° 0.1 mm 5 mps 741 mmHg 55%
    16:00 +23°C° 0.2 mm 5 mps 741 mmHg 60%
    17:00 +22°C° 0.2 mm 5 mps 741 mmHg 65%
    18:00 +21°C° 0.2 mm 4 mps 741 mmHg 69%
    19:00 +21°C° 0.1 mm 4 mps 741 mmHg 72%
    20:00 +20°C° 0.1 mm 4 mps 741 mmHg 75%
    21:00 +19°C° 0.1 mm 3 mps 741 mmHg 78%
    22:00 +19°C° 0.1 mm 3 mps 741 mmHg 80%
    23:00 +18°C° 0.1 mm 3 mps 741 mmHg 81%

    23 April, Tuesday

    Time Temperature Precipitation Wind Pressure Humidity
    00:00 +18°C° 0.1 mm 2 mps 741 mmHg 83%
    01:00 +17°C° 0.1 mm 2 mps 740 mmHg 84%
    02:00 +16°C° 0.1 mm 2 mps 740 mmHg 86%
    03:00 +15°C° 0.1 mm 2 mps 740 mmHg 88%
    04:00 +13°C° 0 mm 3 mps 740 mmHg 89%
    05:00 +12°C° 0 mm 3 mps 740 mmHg 90%
    06:00 +10°C° 0 mm 4 mps 740 mmHg 91%
    07:00 +8°C° 0.2 mm 5 mps 740 mmHg 89%
    08:00 +7°C° 0.2 mm 5 mps 740 mmHg 88%
    09:00 +5°C° 0.2 mm 6 mps 741 mmHg 87%
    10:00 +5°C° 0.1 mm 6 mps 741 mmHg 87%
    11:00 +5°C° 0.1 mm 7 mps 741 mmHg 87%
    12:00 +5°C° 0.1 mm 7 mps 741 mmHg 87%
    13:00 +4°C° 0.1 mm 7 mps 742 mmHg 86%
    14:00 +4°C° 0.1 mm 7 mps 742 mmHg 86%
    15:00 +4°C° 0.1 mm 6 mps 742 mmHg 85%
    16:00 +4°C° 0 mm 6 mps 743 mmHg 86%
    17:00 +4°C° 0 mm 6 mps 743 mmHg 86%
    18:00 +4°C° 0 mm 7 mps 743 mmHg 86%
    19:00 +4°C° 0 mm 6 mps 744 mmHg 86%
    20:00 +4°C° 0 mm 6 mps 744 mmHg 86%
    21:00 +5°C° 0 mm 5 mps 744 mmHg 86%
    22:00 +5°C° 0 mm 5 mps 745 mmHg 87%
    23:00 +5°C° 0 mm 4 mps 745 mmHg 88%

    24 April, Wednesday

    Time Temperature Precipitation Wind Pressure Humidity
    00:00 +4°C° 0 mm 4 mps 745 mmHg 89%
    01:00 +4°C° 0 mm 4 mps 745 mmHg 89%
    02:00 +4°C° 0 mm 4 mps 745 mmHg 89%
    03:00 +4°C° 0 mm 4 mps 745 mmHg 89%
    04:00 +4°C° 0 mm 4 mps 745 mmHg 88%
    05:00 +4°C° 0 mm 4 mps 745 mmHg 86%
    06:00 +4°C° 0 mm 3 mps 745 mmHg 85%
    07:00 +5°C° 0 mm 4 mps 745 mmHg 79%
    08:00 +7°C° 0 mm 4 mps 746 mmHg 73%
    09:00 +8°C° 0 mm 4 mps 746 mmHg 68%
    10:00 +10°C° 0 mm 3 mps 745 mmHg 63%
    11:00 +11°C° 0 mm 3 mps 745 mmHg 58%
    12:00 +12°C° 0 mm 3 mps 745 mmHg 53%
    13:00 +12°C° 0 mm 3 mps 744 mmHg 51%
    14:00 +12°C° 0 mm 3 mps 744 mmHg 49%
    15:00 +13°C° 0 mm 3 mps 743 mmHg 48%
    16:00 +13°C° 0 mm 2 mps 743 mmHg 50%
    17:00 +12°C° 0 mm 2 mps 743 mmHg 52%
    18:00 +10°C° 0 mm 2 mps 743 mmHg 54%
    19:00 +10°C° 0 mm 1 mps 743 mmHg 54%
    20:00 +9°C° 0 mm 1 mps 743 mmHg 55%
    21:00 +8°C° 0 mm 1 mps 743 mmHg 56%
    22:00 +8°C° 0 mm 1 mps 743 mmHg 57%
    23:00 +8°C° 0 mm 1 mps 743 mmHg 58%
    Show more